YZR7920 ZWWW-ZSNJ

Flight info

Callsign YZR7920
Flight time N/A
Altitude 33100
Route VARMI W190 ADPET W188 LIKMI W270 DKO W64 NUTLO B208 CGO W129 KAMDA W128 FYG B208 HFE
Aircraft B77L/H-SDE2E3FGILRWXY/LB2

Departure

Time N/A
Airport Ürümqi Tianshan International Airport (ZWWW)

Arrival

Time 2026-04-22 05:14
Airport Nanjing Lukou International Airport (ZSNJ)
Time Latitude Longitude Altitude Speed Heading
2026-04-22 04:06 36.53006 113.02245 33125 ft 481 kts 174°
2026-04-22 04:06 36.49725 113.03313 33115 ft 487 kts 174°
2026-04-22 04:07 36.43143 113.05454 33127 ft 487 kts 174°
2026-04-22 04:07 36.36608 113.07581 33119 ft 486 kts 174°
2026-04-22 04:08 36.30061 113.09704 33122 ft 484 kts 174°
2026-04-22 04:08 36.23514 113.11894 33121 ft 493 kts 170°
2026-04-22 04:09 36.17035 113.14775 33120 ft 496 kts 169°
2026-04-22 04:09 36.10538 113.17705 33125 ft 497 kts 169°
2026-04-22 04:10 36.04052 113.20624 33117 ft 495 kts 169°
2026-04-22 04:10 35.97468 113.23572 33126 ft 499 kts 169°
2026-04-22 04:11 35.90967 113.26482 33136 ft 498 kts 169°
2026-04-22 04:11 35.84442 113.29394 33142 ft 500 kts 169°
2026-04-22 04:12 35.77921 113.32312 33137 ft 498 kts 169°
2026-04-22 04:12 35.71401 113.35225 33135 ft 500 kts 169°
2026-04-22 04:13 35.64887 113.38132 33134 ft 498 kts 169°
2026-04-22 04:13 35.58356 113.41037 33133 ft 504 kts 169°
2026-04-22 04:14 35.51780 113.43955 33135 ft 497 kts 169°
2026-04-22 04:14 35.45240 113.46847 33116 ft 504 kts 169°
2026-04-22 04:15 35.38647 113.49778 33117 ft 504 kts 169°
2026-04-22 04:15 35.32101 113.52696 33103 ft 499 kts 169°
2026-04-22 04:16 35.22232 113.57073 33110 ft 505 kts 169°
2026-04-22 04:17 35.15648 113.59992 33113 ft 507 kts 169°
2026-04-22 04:17 35.09052 113.62911 33110 ft 503 kts 169°
2026-04-22 04:18 35.02506 113.65803 33083 ft 502 kts 169°
2026-04-22 04:18 34.95917 113.68706 33093 ft 501 kts 170°
2026-04-22 04:19 34.89364 113.71589 33086 ft 500 kts 169°
2026-04-22 04:19 34.82783 113.74287 33104 ft 495 kts 175°
2026-04-22 04:20 34.76133 113.76421 33082 ft 494 kts 175°
2026-04-22 04:20 34.69488 113.78571 33096 ft 493 kts 175°
2026-04-22 04:21 34.62858 113.80731 33092 ft 495 kts 174°
2026-04-22 04:21 34.56214 113.82909 33094 ft 493 kts 174°
2026-04-22 04:22 34.49594 113.85068 33096 ft 491 kts 175°
2026-04-22 04:22 34.43003 113.87146 33104 ft 492 kts 175°
2026-04-22 04:23 34.36394 113.89228 33095 ft 490 kts 175°
2026-04-22 04:23 34.29803 113.91305 33101 ft 489 kts 175°
2026-04-22 04:24 34.23185 113.93387 33103 ft 488 kts 175°
2026-04-22 04:24 34.16620 113.95450 33103 ft 489 kts 175°
2026-04-22 04:25 34.10039 113.97518 33108 ft 486 kts 175°
2026-04-22 04:25 34.03524 113.99559 33096 ft 486 kts 175°
2026-04-22 04:26 33.96963 114.01613 33107 ft 485 kts 174°
2026-04-22 04:26 33.90385 114.03667 33105 ft 489 kts 174°
2026-04-22 04:27 33.83819 114.05719 33111 ft 482 kts 174°
2026-04-22 04:27 33.77283 114.07752 33109 ft 487 kts 174°
2026-04-22 04:28 33.70745 114.09786 33114 ft 487 kts 174°
2026-04-22 04:28 33.64204 114.11820 33115 ft 482 kts 174°
2026-04-22 04:29 33.57735 114.13825 33115 ft 483 kts 174°
2026-04-22 04:29 33.51163 114.15859 33112 ft 484 kts 174°
2026-04-22 04:30 33.44716 114.18171 33111 ft 490 kts 165°
2026-04-22 04:30 33.41656 114.20060 33110 ft 504 kts 156°
2026-04-22 04:30 33.38798 114.22528 33113 ft 513 kts 147°
2026-04-22 04:31 33.34006 114.29047 33108 ft 537 kts 128°
2026-04-22 04:31 33.30904 114.37194 33115 ft 544 kts 114°
2026-04-22 04:32 33.28388 114.45720 33114 ft 546 kts 115°
2026-04-22 04:32 33.25840 114.54246 33118 ft 544 kts 115°
2026-04-22 04:33 33.23256 114.62736 33119 ft 547 kts 115°
2026-04-22 04:33 33.20654 114.71183 33105 ft 543 kts 115°
2026-04-22 04:34 33.18013 114.79655 33102 ft 545 kts 116°
2026-04-22 04:34 33.15364 114.88090 33106 ft 544 kts 116°
2026-04-22 04:35 33.12719 114.96474 33107 ft 544 kts 116°
2026-04-22 04:35 33.10057 115.04880 33108 ft 545 kts 116°
2026-04-22 04:36 33.07388 115.13281 33109 ft 544 kts 116°
2026-04-22 04:36 33.04686 115.21761 33104 ft 545 kts 116°
2026-04-22 04:37 33.02013 115.30128 33106 ft 543 kts 116°
2026-04-22 04:37 32.99306 115.38574 33102 ft 544 kts 116°
2026-04-22 04:38 32.96612 115.46985 33103 ft 549 kts 115°
2026-04-22 04:38 32.93963 115.55437 33107 ft 548 kts 115°
2026-04-22 04:39 32.91288 115.63952 33104 ft 549 kts 115°
2026-04-22 04:39 32.88361 115.72249 33094 ft 540 kts 125°
2026-04-22 04:40 32.84044 115.79359 33094 ft 530 kts 137°
2026-04-22 04:40 32.79311 115.86108 32965 ft 532 kts 136°
2026-04-22 04:40 32.76963 115.89445 32602 ft 524 kts 136°
2026-04-22 04:41 32.74641 115.92743 32238 ft 516 kts 136°
2026-04-22 04:41 32.72343 115.96001 31883 ft 508 kts 136°
2026-04-22 04:41 32.70110 115.99161 31534 ft 500 kts 136°
2026-04-22 04:41 32.67880 116.02312 31170 ft 493 kts 136°
2026-04-22 04:42 32.65712 116.05373 30821 ft 486 kts 136°
2026-04-22 04:42 32.63521 116.08459 30460 ft 485 kts 135°
2026-04-22 04:42 32.61365 116.11492 30108 ft 487 kts 135°
2026-04-22 04:42 32.59167 116.14583 29754 ft 488 kts 134°
2026-04-22 04:43 32.56996 116.17635 29387 ft 484 kts 135°
2026-04-22 04:43 32.54866 116.20670 29033 ft 479 kts 133°
2026-04-22 04:43 32.52780 116.23715 28687 ft 473 kts 133°
2026-04-22 04:43 32.50703 116.26749 28332 ft 469 kts 133°
2026-04-22 04:44 32.48655 116.29732 27984 ft 469 kts 133°
2026-04-22 04:44 32.46610 116.32708 27636 ft 467 kts 133°
2026-04-22 04:44 32.44575 116.35664 27288 ft 463 kts 133°
2026-04-22 04:44 32.42523 116.38644 26934 ft 459 kts 132°
2026-04-22 04:45 32.40537 116.41524 26590 ft 454 kts 132°
2026-04-22 04:45 32.38534 116.44426 26242 ft 452 kts 132°
2026-04-22 04:45 32.36549 116.47299 25896 ft 451 kts 132°
2026-04-22 04:45 32.34560 116.50175 25550 ft 447 kts 132°
2026-04-22 04:46 32.32624 116.52972 25203 ft 444 kts 132°
2026-04-22 04:46 32.30682 116.55776 24864 ft 440 kts 132°
2026-04-22 04:46 32.28722 116.58604 24514 ft 437 kts 131°
2026-04-22 04:46 32.26825 116.61337 24181 ft 435 kts 131°
2026-04-22 04:47 32.24894 116.64120 23852 ft 434 kts 132°
2026-04-22 04:47 32.23001 116.66843 23529 ft 431 kts 132°
2026-04-22 04:47 32.21095 116.69586 23197 ft 427 kts 132°
2026-04-22 04:47 32.19221 116.72279 22866 ft 423 kts 132°
2026-04-22 04:48 32.17335 116.74953 22539 ft 421 kts 133°
2026-04-22 04:48 32.15471 116.77544 22204 ft 418 kts 133°
2026-04-22 04:48 32.13591 116.80154 21880 ft 412 kts 133°
2026-04-22 04:48 32.11753 116.82706 21546 ft 406 kts 133°
2026-04-22 04:49 32.09937 116.85227 21216 ft 401 kts 133°
2026-04-22 04:49 32.08155 116.87700 20895 ft 395 kts 132°
2026-04-22 04:49 32.07564 116.88520 20788 ft 394 kts 132°
2026-04-22 04:50 32.03823 116.93707 20082 ft 385 kts 132°
2026-04-22 04:50 31.99929 116.99099 19348 ft 381 kts 132°
2026-04-22 04:51 31.94982 117.05962 18403 ft 373 kts 131°
2026-04-22 04:52 31.90159 117.12656 17675 ft 363 kts 131°
2026-04-22 04:52 31.84475 117.20528 17356 ft 372 kts 132°
2026-04-22 04:53 31.82811 117.22830 17031 ft 369 kts 132°
2026-04-22 04:53 31.81156 117.25119 16689 ft 365 kts 132°
2026-04-22 04:53 31.79510 117.27393 16347 ft 362 kts 132°
2026-04-22 04:53 31.77893 117.29625 16015 ft 361 kts 132°
2026-04-22 04:54 31.76324 117.31907 15671 ft 360 kts 128°
2026-04-22 04:54 31.74885 117.34322 15324 ft 359 kts 127°
2026-04-22 04:54 31.73455 117.36734 14973 ft 358 kts 127°
2026-04-22 04:54 31.72031 117.39111 14630 ft 355 kts 128°
2026-04-22 04:55 31.70622 117.41446 14289 ft 352 kts 128°
2026-04-22 04:55 31.69200 117.43792 13928 ft 349 kts 128°
2026-04-22 04:55 31.67806 117.46085 13583 ft 346 kts 128°
2026-04-22 04:55 31.66406 117.48383 13228 ft 343 kts 129°
2026-04-22 04:56 31.65029 117.50638 12888 ft 340 kts 129°
2026-04-22 04:56 31.63683 117.52911 12531 ft 338 kts 124°
2026-04-22 04:56 31.62612 117.55335 12153 ft 338 kts 114°
2026-04-22 04:56 31.61866 117.57948 11802 ft 337 kts 105°
2026-04-22 04:57 31.61473 117.60662 11445 ft 336 kts 96°
2026-04-22 04:57 31.61441 117.63397 11077 ft 335 kts 86°
2026-04-22 04:57 31.61685 117.66138 10743 ft 332 kts 84°
2026-04-22 04:57 31.61952 117.68823 10385 ft 329 kts 84°
2026-04-22 04:58 31.62218 117.71497 10033 ft 326 kts 84°
2026-04-22 04:58 31.62479 117.74143 9690 ft 323 kts 84°
2026-04-22 04:58 31.62733 117.76724 9352 ft 320 kts 83°
2026-04-22 04:58 31.62987 117.79311 8983 ft 317 kts 84°
2026-04-22 04:59 31.63236 117.81856 8632 ft 314 kts 83°
2026-04-22 04:59 31.63484 117.84397 8318 ft 311 kts 83°
2026-04-22 04:59 31.63729 117.86915 7996 ft 308 kts 82°
2026-04-22 04:59 31.63968 117.89372 7691 ft 304 kts 83°
2026-04-22 05:00 31.64207 117.91838 7380 ft 301 kts 83°
2026-04-22 05:00 31.64439 117.94237 7062 ft 298 kts 82°
2026-04-22 05:00 31.64673 117.96657 6746 ft 295 kts 83°
2026-04-22 05:00 31.64903 117.99049 6461 ft 292 kts 82°
2026-04-22 05:01 31.65128 118.01389 6147 ft 288 kts 82°
2026-04-22 05:01 31.65349 118.03696 5808 ft 285 kts 82°
2026-04-22 05:01 31.65571 118.06006 5505 ft 282 kts 82°
2026-04-22 05:01 31.65786 118.08257 5213 ft 280 kts 81°
2026-04-22 05:02 31.66002 118.10516 4921 ft 277 kts 82°
2026-04-22 05:02 31.66216 118.12754 4627 ft 274 kts 82°
2026-04-22 05:02 31.66427 118.14972 4331 ft 271 kts 81°
2026-04-22 05:02 31.66626 118.17147 4046 ft 270 kts 83°
2026-04-22 05:03 31.66679 118.19325 3923 ft 261 kts 86°
2026-04-22 05:03 31.66686 118.21412 3904 ft 253 kts 87°
2026-04-22 05:03 31.66691 118.23457 3938 ft 246 kts 86°
2026-04-22 05:03 31.66697 118.25429 3913 ft 233 kts 87°
2026-04-22 05:04 31.66704 118.27273 3905 ft 225 kts 86°
2026-04-22 05:04 31.66712 118.29127 3917 ft 226 kts 86°
2026-04-22 05:04 31.66718 118.30977 3905 ft 227 kts 87°
2026-04-22 05:04 31.66724 118.32812 3902 ft 225 kts 87°
2026-04-22 05:05 31.66730 118.34640 3950 ft 228 kts 87°
2026-04-22 05:05 31.66736 118.36504 3882 ft 227 kts 86°
2026-04-22 05:05 31.66741 118.38371 3806 ft 227 kts 87°
2026-04-22 05:05 31.66746 118.40203 3729 ft 226 kts 87°
2026-04-22 05:06 31.66608 118.42044 3617 ft 226 kts 105°
2026-04-22 05:06 31.66031 118.43760 3522 ft 229 kts 111°
2026-04-22 05:06 31.65371 118.45455 3419 ft 229 kts 112°
2026-04-22 05:06 31.64708 118.47143 3311 ft 230 kts 112°
2026-04-22 05:07 31.64034 118.48862 3228 ft 228 kts 112°
2026-04-22 05:07 31.63374 118.50546 3133 ft 228 kts 112°
2026-04-22 05:07 31.62706 118.52248 3039 ft 225 kts 111°
2026-04-22 05:07 31.62065 118.53880 2954 ft 215 kts 112°
2026-04-22 05:08 31.61455 118.55431 2856 ft 206 kts 111°
2026-04-22 05:08 31.60860 118.56950 2744 ft 204 kts 111°
2026-04-22 05:08 31.60277 118.58487 2651 ft 203 kts 104°
2026-04-22 05:08 31.60221 118.60102 2575 ft 201 kts 74°
2026-04-22 05:09 31.60618 118.61657 2471 ft 197 kts 65°
2026-04-22 05:09 31.61106 118.63151 2353 ft 194 kts 64°
2026-04-22 05:09 31.61589 118.64610 2244 ft 192 kts 65°
2026-04-22 05:09 31.62072 118.66080 2120 ft 191 kts 65°
2026-04-22 05:10 31.62548 118.67524 2041 ft 190 kts 65°
2026-04-22 05:10 31.63026 118.68985 1980 ft 188 kts 65°
2026-04-22 05:10 31.63587 118.70312 1862 ft 175 kts 56°
2026-04-22 05:10 31.64172 118.71499 1798 ft 163 kts 54°
2026-04-22 05:11 31.64781 118.72638 1800 ft 165 kts 53°
2026-04-22 05:11 31.65394 118.73762 1800 ft 165 kts 53°
2026-04-22 05:11 31.66009 118.74901 1806 ft 164 kts 53°
2026-04-22 05:11 31.66601 118.75999 1809 ft 151 kts 53°
2026-04-22 05:12 31.67161 118.77036 1597 ft 149 kts 53°
2026-04-22 05:12 31.67714 118.78061 1417 ft 148 kts 53°
2026-04-22 05:12 31.68263 118.79082 1226 ft 151 kts 54°
2026-04-22 05:12 31.68823 118.80122 1044 ft 149 kts 54°
2026-04-22 05:13 31.69377 118.81168 768 ft 149 kts 54°
2026-04-22 05:13 31.69947 118.82192 545 ft 149 kts 56°
2026-04-22 05:13 31.70492 118.83250 376 ft 152 kts 55°
2026-04-22 05:13 31.71060 118.84274 170 ft 150 kts 57°
2026-04-22 05:14 31.71605 118.85291 71 ft 144 kts 56°
2026-04-22 05:14 31.72059 118.86132 63 ft 96 kts 59°
2026-04-22 05:14 31.72318 118.86617 63 ft 43 kts 59°
2026-04-22 05:14 31.72412 118.86794 63 ft 20 kts 57°
2026-04-22 05:15 31.72469 118.86893 63 ft 13 kts 50°
2026-04-22 05:15 31.72528 118.86962 63 ft 10 kts 41°
2026-04-22 05:15 31.72590 118.87015 63 ft 11 kts 32°
2026-04-22 05:15 31.72657 118.87064 63 ft 8 kts 30°
2026-04-22 05:16 31.72716 118.87072 63 ft 9 kts 339°
2026-04-22 05:16 31.72779 118.87030 63 ft 11 kts 329°
2026-04-22 05:16 31.72795 118.86954 63 ft 11 kts 243°
2026-04-22 05:16 31.72749 118.86867 63 ft 13 kts 238°
2026-04-22 05:17 31.72699 118.86772 63 ft 14 kts 238°
2026-04-22 05:17 31.72653 118.86687 63 ft 7 kts 238°
2026-04-22 05:17 31.72624 118.86630 63 ft 8 kts 249°
2026-04-22 05:17 31.72655 118.86574 63 ft 9 kts 330°
2026-04-22 05:18 31.72786 118.86478 63 ft 12 kts 327°
2026-04-22 05:18 31.72861 118.86423 63 ft 13 kts 328°
2026-04-22 05:18 31.72941 118.86363 63 ft 13 kts 328°
2026-04-22 05:19 31.73025 118.86302 63 ft 14 kts 329°
2026-04-22 05:19 31.73115 118.86237 63 ft 15 kts 328°
2026-04-22 05:19 31.73207 118.86169 63 ft 15 kts 328°
2026-04-22 05:19 31.73301 118.86101 63 ft 16 kts 328°
2026-04-22 05:20 31.73399 118.86028 63 ft 16 kts 328°
2026-04-22 05:20 31.73499 118.85956 63 ft 17 kts 328°
2026-04-22 05:20 31.73601 118.85880 63 ft 17 kts 328°
2026-04-22 05:20 31.73699 118.85810 63 ft 12 kts 328°
2026-04-22 05:21 31.73749 118.85778 63 ft 7 kts 350°
2026-04-22 05:21 31.73797 118.85811 63 ft 9 kts 55°
2026-04-22 05:21 31.73836 118.85880 63 ft 10 kts 58°
2026-04-22 05:21 31.73878 118.85957 63 ft 11 kts 58°
2026-04-22 05:22 31.73924 118.86044 63 ft 12 kts 58°
2026-04-22 05:22 31.73973 118.86136 63 ft 13 kts 58°
2026-04-22 05:22 31.74026 118.86235 63 ft 14 kts 56°
2026-04-22 05:22 31.74081 118.86339 63 ft 15 kts 58°
2026-04-22 05:23 31.74139 118.86445 63 ft 15 kts 58°
2026-04-22 05:23 31.74198 118.86556 63 ft 16 kts 58°
2026-04-22 05:23 31.74259 118.86670 63 ft 16 kts 58°
2026-04-22 05:23 31.74322 118.86787 63 ft 17 kts 58°
2026-04-22 05:24 31.74385 118.86908 63 ft 17 kts 58°
2026-04-22 05:24 31.74450 118.87030 63 ft 17 kts 58°
2026-04-22 05:24 31.74488 118.87102 63 ft 6 kts 69°
2026-04-22 05:24 31.74475 118.87154 63 ft 7 kts 134°
2026-04-22 05:25 31.74449 118.87206 63 ft 8 kts 94°
2026-04-22 05:25 31.74432 118.87255 63 ft 7 kts 129°
2026-04-22 05:25 31.74417 118.87276 63 ft 2 kts 132°
2026-04-22 05:25 31.74404 118.87288 63 ft 1 kts 148°
2026-04-22 05:26 31.74404 118.87289 63 ft 0 kts 148°